Hourly Data Report for October 16, 2014

All times are specified in Local Standard Time (LST). Add 1 hour to adjust for Daylight Saving Time where and when it is observed.

ST LEONARD CS
NEW BRUNSWICK

47°09'28.050" N
67°49'55.014" W
245.00 m
810I001
71019
WIY

Download Data

Hourly Data (October 2014)
Hourly Data Report for October 16, 2014
Temp Definition
°C
Dew Point Temp Definition
°C
Rel Hum Definition
%
Wind Dir Definition
10's deg

Wind Spd Definition
km/h
Visibility Definition
km
Stn Press Definition
kPa
Hmdx Definition


Wind Chill Definition


Weather Definition


TIME
00:00 12.3 11.7 96 4 2   98.75     LegendNANA
01:00 12.0 11.5 97 4 2   98.73     LegendNANA
02:00 12.9 12.5 98 8 2   98.67     LegendNANA
03:00 13.7 13.3 97 11 3   98.64     LegendNANA
04:00 12.6 12.0 96 11 4   98.62     LegendNANA
05:00 11.4 10.7 96 11 4   98.65     LegendNANA
06:00 10.9 10.1 95 11 3   98.67     LegendNANA
07:00 10.7 9.9 95 10 2   98.72     LegendNANA
08:00 10.8 9.9 95 11 2   98.74     LegendNANA
09:00 11.3 10.4 94 12 2   98.76     LegendNANA
10:00 12.0 11.1 94 12 2   98.76     LegendNANA
11:00 12.7 11.1 90 12 3   98.74     LegendNANA
12:00 13.7 11.7 88 12 2   98.73     LegendNANA
13:00 14.3 12.0 86 10 2   98.68     LegendNANA
14:00 14.4 12.1 86 11 2   98.67     LegendNANA
15:00 14.4 12.2 87 11 4   98.65     LegendNANA
16:00 14.7 12.4 86 10 2   98.60     LegendNANA
17:00 14.7 12.7 88 10 2   98.58     LegendNANA
18:00 13.7 12.8 95 11 3   98.55     LegendNANA
19:00 12.8 12.2 96 10 3   98.53     LegendNANA
20:00 12.5 11.9 96 11 3   98.52     LegendNANA
21:00 12.3 11.6 96 10 3   98.49     LegendNANA
22:00 12.1 11.6 97 11 2   98.43     LegendNANA
23:00 12.2 11.6 96 11 3   98.35     LegendNANA

Notes on Data Quality.

Legend

  • E = Estimated
  • M = Missing
  • NA = Not Available
  • ‡ = Partner data that is not subject to review by the National Climate Archives
Date modified: